• In Netherlands
  • List of Countries
  • For 7 days
  • Water Temperature
  • Satellite Maps
  • Weather Map
  • Weather Widgets
  • user-avatar
    Login

    Hourly Weather Rawson

    Today, 30 April, Sunday

    Time Temperature Precipitation Wind Pressure Humidity
    00:00 +17°C° 0 mm 7 mps 756 mmHg 55%
    01:00 +17°C° 0 mm 7 mps 756 mmHg 57%
    02:00 +17°C° 0 mm 7 mps 756 mmHg 59%
    03:00 +17°C° 0 mm 7 mps 756 mmHg 60%
    04:00 +17°C° 0 mm 7 mps 756 mmHg 61%
    05:00 +16°C° 0 mm 7 mps 756 mmHg 63%
    06:00 +16°C° 0 mm 6 mps 756 mmHg 63%
    07:00 +16°C° 0 mm 6 mps 757 mmHg 63%
    08:00 +16°C° 0 mm 6 mps 757 mmHg 63%
    09:00 +20°C° 0 mm 6 mps 757 mmHg 55%
    10:00 +22°C° 0 mm 6 mps 757 mmHg 47%
    11:00 +24°C° 0 mm 6 mps 757 mmHg 39%
    12:00 +26°C° 0 mm 5 mps 757 mmHg 36%
    13:00 +27°C° 0 mm 5 mps 757 mmHg 33%
    14:00 +27°C° 0 mm 4 mps 757 mmHg 31%
    15:00 +26°C° 0 mm 3 mps 757 mmHg 34%
    16:00 +25°C° 0 mm 3 mps 756 mmHg 38%
    17:00 +24°C° 0 mm 3 mps 756 mmHg 41%
    18:00 +22°C° 0 mm 4 mps 756 mmHg 46%
    19:00 +20°C° 0 mm 4 mps 756 mmHg 51%
    20:00 +19°C° 0 mm 5 mps 756 mmHg 56%
    21:00 +19°C° 0 mm 5 mps 756 mmHg 57%
    22:00 +19°C° 0 mm 5 mps 756 mmHg 59%
    23:00 +17°C° 0 mm 5 mps 756 mmHg 60%

    Tomorrow, 1 May, Monday

    Time Temperature Precipitation Wind Pressure Humidity
    00:00 +17°C° 0 mm 5 mps 755 mmHg 55%
    01:00 +17°C° 0 mm 5 mps 755 mmHg 50%
    02:00 +17°C° 0 mm 5 mps 755 mmHg 45%
    03:00 +16°C° 0 mm 5 mps 755 mmHg 46%
    04:00 +16°C° 0 mm 5 mps 754 mmHg 46%
    05:00 +16°C° 0 mm 5 mps 754 mmHg 47%
    06:00 +16°C° 0 mm 5 mps 754 mmHg 46%
    07:00 +16°C° 0 mm 5 mps 754 mmHg 46%
    08:00 +17°C° 0 mm 4 mps 754 mmHg 46%
    09:00 +19°C° 0 mm 5 mps 753 mmHg 40%
    10:00 +21°C° 0 mm 5 mps 753 mmHg 34%
    11:00 +23°C° 0 mm 5 mps 753 mmHg 28%
    12:00 +26°C° 0 mm 5 mps 752 mmHg 25%
    13:00 +27°C° 0 mm 6 mps 752 mmHg 22%
    14:00 +29°C° 0 mm 6 mps 751 mmHg 18%
    15:00 +27°C° 0 mm 6 mps 751 mmHg 20%
    16:00 +26°C° 0 mm 6 mps 750 mmHg 22%
    17:00 +24°C° 0 mm 6 mps 750 mmHg 24%
    18:00 +23°C° 0 mm 6 mps 750 mmHg 25%
    19:00 +22°C° 0 mm 7 mps 750 mmHg 26%
    20:00 +21°C° 0 mm 7 mps 750 mmHg 28%
    21:00 +20°C° 0 mm 7 mps 750 mmHg 29%
    22:00 +20°C° 0 mm 7 mps 750 mmHg 30%
    23:00 +20°C° 0 mm 8 mps 750 mmHg 31%

    Day after tomorrow, 2 May, Tuesday

    Time Temperature Precipitation Wind Pressure Humidity
    00:00 +20°C° 0 mm 8 mps 750 mmHg 31%
    01:00 +18°C° 0 mm 8 mps 750 mmHg 31%
    02:00 +18°C° 0 mm 8 mps 750 mmHg 31%
    03:00 +18°C° 0 mm 9 mps 750 mmHg 31%
    04:00 +19°C° 0 mm 10 mps 749 mmHg 32%
    05:00 +19°C° 0 mm 11 mps 749 mmHg 32%
    06:00 +19°C° 0 mm 11 mps 750 mmHg 34%
    07:00 +19°C° 0 mm 11 mps 750 mmHg 37%
    08:00 +18°C° 0 mm 11 mps 750 mmHg 39%
    09:00 +19°C° 0 mm 11 mps 751 mmHg 39%
    10:00 +21°C° 0 mm 12 mps 752 mmHg 39%
    11:00 +22°C° 0 mm 13 mps 753 mmHg 38%
    12:00 +20°C° 0 mm 13 mps 753 mmHg 34%
    13:00 +20°C° 0 mm 13 mps 754 mmHg 30%
    14:00 +19°C° 0 mm 13 mps 755 mmHg 25%
    15:00 +18°C° 0 mm 11 mps 756 mmHg 25%
    16:00 +17°C° 0 mm 10 mps 757 mmHg 25%
    17:00 +16°C° 0 mm 8 mps 758 mmHg 24%
    18:00 +15°C° 0 mm 7 mps 759 mmHg 27%
    19:00 +14°C° 0 mm 6 mps 760 mmHg 30%
    20:00 +13°C° 0 mm 6 mps 761 mmHg 32%
    21:00 +13°C° 0 mm 6 mps 761 mmHg 35%
    22:00 +11°C° 0 mm 7 mps 762 mmHg 38%
    23:00 +11°C° 0 mm 7 mps 763 mmHg 41%

    3 May, Wednesday

    Time Temperature Precipitation Wind Pressure Humidity
    00:00 +10°C° 0 mm 7 mps 763 mmHg 43%
    01:00 +10°C° 0 mm 6 mps 763 mmHg 45%
    02:00 +9°C° 0 mm 6 mps 763 mmHg 47%
    03:00 +9°C° 0 mm 5 mps 764 mmHg 48%
    04:00 +9°C° 0 mm 5 mps 764 mmHg 50%
    05:00 +8°C° 0 mm 4 mps 764 mmHg 51%
    06:00 +10°C° 0 mm 4 mps 763 mmHg 51%
    07:00 +10°C° 0 mm 4 mps 763 mmHg 50%
    08:00 +10°C° 0 mm 4 mps 763 mmHg 50%
    09:00 +11°C° 0 mm 6 mps 762 mmHg 45%
    10:00 +13°C° 0 mm 9 mps 762 mmHg 39%
    11:00 +14°C° 0 mm 11 mps 761 mmHg 33%
    12:00 +17°C° 0 mm 12 mps 760 mmHg 32%
    13:00 +18°C° 0 mm 12 mps 758 mmHg 30%
    14:00 +19°C° 0 mm 13 mps 757 mmHg 28%
    15:00 +19°C° 0 mm 12 mps 756 mmHg 31%
    16:00 +18°C° 0 mm 12 mps 755 mmHg 34%
    17:00 +18°C° 0 mm 11 mps 754 mmHg 36%
    18:00 +18°C° 0 mm 11 mps 754 mmHg 37%
    19:00 +17°C° 0 mm 12 mps 753 mmHg 38%
    20:00 +17°C° 0 mm 12 mps 753 mmHg 39%
    21:00 +16°C° 0 mm 11 mps 752 mmHg 41%
    22:00 +16°C° 0 mm 11 mps 752 mmHg 42%
    23:00 +16°C° 0 mm 10 mps 751 mmHg 44%

    4 May, Thursday

    Time Temperature Precipitation Wind Pressure Humidity
    00:00 +16°C° 0 mm 10 mps 750 mmHg 45%
    01:00 +16°C° 0 mm 10 mps 749 mmHg 45%
    02:00 +16°C° 0 mm 10 mps 749 mmHg 46%
    03:00 +17°C° 0 mm 10 mps 748 mmHg 43%
    04:00 +17°C° 0 mm 10 mps 748 mmHg 40%
    05:00 +17°C° 0 mm 10 mps 748 mmHg 37%
    06:00 +18°C° 0 mm 10 mps 748 mmHg 36%
    07:00 +18°C° 0 mm 11 mps 748 mmHg 34%
    08:00 +19°C° 0 mm 12 mps 748 mmHg 33%
    09:00 +21°C° 0 mm 12 mps 748 mmHg 33%
    10:00 +22°C° 0 mm 11 mps 748 mmHg 33%
    11:00 +23°C° 0 mm 11 mps 748 mmHg 33%
    12:00 +23°C° 0 mm 10 mps 749 mmHg 32%
    13:00 +23°C° 0 mm 10 mps 749 mmHg 31%
    14:00 +23°C° 0 mm 9 mps 749 mmHg 31%
    15:00 +22°C° 0 mm 8 mps 750 mmHg 33%
    16:00 +21°C° 0 mm 6 mps 750 mmHg 35%
    17:00 +20°C° 0 mm 5 mps 751 mmHg 37%
    18:00 +17°C° 0 mm 6 mps 752 mmHg 47%
    19:00 +15°C° 0 mm 7 mps 753 mmHg 56%
    20:00 +13°C° 0 mm 8 mps 754 mmHg 66%
    21:00 +14°C° 0 mm 7 mps 754 mmHg 68%
    22:00 +13°C° 0 mm 6 mps 755 mmHg 70%
    23:00 +13°C° 0 mm 6 mps 755 mmHg 72%

    5 May, Friday

    Time Temperature Precipitation Wind Pressure Humidity
    00:00 +13°C° 0.1 mm 6 mps 755 mmHg 74%
    01:00 +13°C° 0.1 mm 6 mps 755 mmHg 76%
    02:00 +13°C° 0.1 mm 6 mps 755 mmHg 78%
    03:00 +12°C° 0 mm 7 mps 755 mmHg 79%
    04:00 +12°C° 0 mm 7 mps 754 mmHg 81%
    05:00 +12°C° 0 mm 8 mps 753 mmHg 82%
    06:00 +13°C° 0 mm 8 mps 753 mmHg 81%
    07:00 +13°C° 0 mm 8 mps 753 mmHg 81%
    08:00 +15°C° 0 mm 8 mps 753 mmHg 80%
    09:00 +17°C° 0 mm 8 mps 752 mmHg 67%
    10:00 +19°C° 0 mm 9 mps 752 mmHg 54%
    11:00 +22°C° 0 mm 10 mps 751 mmHg 40%
    12:00 +22°C° 0 mm 9 mps 751 mmHg 39%
    13:00 +22°C° 0 mm 9 mps 750 mmHg 38%
    14:00 +22°C° 0 mm 9 mps 749 mmHg 37%
    15:00 +22°C° 0 mm 9 mps 749 mmHg 35%
    16:00 +22°C° 0 mm 9 mps 749 mmHg 33%
    17:00 +22°C° 0 mm 9 mps 749 mmHg 31%
    18:00 +21°C° 0 mm 8 mps 749 mmHg 34%
    19:00 +20°C° 0 mm 8 mps 749 mmHg 37%
    20:00 +18°C° 0 mm 8 mps 749 mmHg 41%
    21:00 +18°C° 0 mm 8 mps 749 mmHg 41%
    22:00 +17°C° 0 mm 8 mps 750 mmHg 41%
    23:00 +17°C° 0 mm 9 mps 750 mmHg 41%
    Show more